Location: Bennemühlen
(52.5740°N, 9.7135°E)
Time: 05:56:32
(UTC+00:00)

A-11 Canister half - Pass Details

Date: 26 February 2026
Orbit: 1512 x 1687 km, 47.2° (Epoch: 5 March)

Event Time Altitude Azimuth Distance (km) Brightness Sun altitude
Rises 19:26:33 0° 244° (WSW) 4,936 12.3 -23.6°
Reaches altitude 10° 19:29:46 10° 241° (WSW) 3,950 11.7 -24.1°
Maximum altitude 19:39:40 60° 165° (SSE) 1,878 9.2 -25.5°
Enters shadow 19:42:57 43° 111° (ESE) 2,200 9.3 -26.0°
Drops below altitude 10° 19:49:25 10° 89° (E) 3,889 - -26.9°
Sets 19:52:33 0° 86° (E) 4,856 - -27.3°
